[[{"header":{"parameterUnit":"m.s-1","parameterCategory":1,"la1":30.2991,"la2":30.254,"lo1":-89.0895,"lo2":-89.0444,"dy":0.0017,"dx":0.0017,"nx":28,"ny":28,"refTime":"2025-03-14T09:00:00:Z","depth":0,"parameterNumber":2,"parameterNumberName":"U-component_of_WINDS"},"data":[0,0,0,0,0,0,0,0,0,0,0,0,0,0,0,0,0,0,0,0,0,0,0,0,0,0,0,0,0,0,0,0,0,0,0,0,0,0,0,0,0,0,0,0,0,0,0,0,0,0,0,0,0,0,0,0,0,0,-0.2434,-0.2436,0,-0.2592,-0.2593,-0.2595,-0.2715,-0.2716,-0.2717,-0.2718,-0.2875,-0.2878,-0.2881,0,0,0,0,0,0,0,0,0,0,0,0,0,-0.2233,-0.2236,-0.2434,-0.2436,-0.2438,-0.2591,-0.2593,-0.2596,-0.2715,-0.2716,-0.2717,-0.2719,-0.2874,-0.2878,-0.2882,0,0,0,0,0,0,0,0,0,0,0,0,0,-0.2348,-0.2237,-0.2434,-0.2516,-0.2525,-0.2591,-0.2594,-0.2596,-0.2714,-0.2716,-0.2718,-0.2719,-0.2873,-0.2877,-0.2882,-0.2878,0,0,-0.2897,-0.2899,0,0,0,0,0,0,0,0,-0.2342,-0.2356,-0.2502,-0.251,-0.2521,-0.2635,-0.2581,-0.269,-0.2714,-0.2642,-0.2718,-0.272,-0.2794,-0.2805,-0.2831,-0.2885,-0.2892,-0.2897,-0.29,-0.2902,-0.2903,0,0,0,0,0,0,0,-0.2334,-0.235,-0.2496,-0.2504,-0.2515,-0.2544,-0.2562,-0.2602,-0.2706,-0.2649,-0.2658,-0.2675,-0.2799,-0.2826,-0.2835,-0.2894,-0.2897,-0.2901,-0.2904,-0.2906,-0.2954,-0.2952,0,0,0,0,0,0,-0.2313,-0.2342,-0.2491,-0.2501,-0.2434,-0.2546,-0.2567,-0.2597,-0.2707,-0.2725,-0.2673,-0.268,-0.2817,-0.283,-0.2841,-0.2844,-0.2902,-0.2906,-0.2909,-0.2955,-0.2954,-0.2952,0,0,0,0,0,0,-0.2309,-0.2326,-0.2485,-0.2424,-0.2447,-0.2548,-0.2581,-0.2599,-0.2626,-0.2725,-0.2744,-0.2682,-0.2819,-0.2835,-0.2868,-0.2851,-0.2908,-0.2913,-0.2957,-0.2955,-0.2953,-0.2849,0,0,0,0,0,0,-0.2302,-0.2323,-0.2323,-0.2423,-0.2449,-0.251,-0.258,-0.2601,-0.2634,-0.2644,-0.2738,-0.2755,-0.2821,-0.2861,-0.2873,-0.2859,-0.2916,-0.2959,-0.2956,-0.2953,-0.2854,-0.2844,-0.2834,0,0,0,0,0,-0.2295,-0.2286,-0.2322,-0.234,-0.2452,-0.2509,-0.2524,-0.2601,-0.2632,-0.2633,-0.2697,-0.2752,-0.2851,-0.2863,-0.2878,-0.2865,-0.2961,-0.2957,-0.2954,-0.2859,-0.2846,-0.2834,0,0,0,0,0,0,-0.218,-0.2301,-0.2342,-0.2366,-0.2427,-0.2529,-0.2532,-0.2584,-0.2636,-0.2643,-0.2736,-0.2756,-0.2779,-0.2826,-0.2837,-0.2867,-0.2913,-0.2912,-0.2836,-0.2824,-0.2814,-0.2802,-0.292,0,0,0,0,0,-0.2158,-0.2195,-0.2298,-0.231,-0.2338,-0.2429,-0.2457,-0.2512,-0.2577,-0.2603,-0.2669,-0.2729,-0.2775,-0.2802,-0.2849,-0.2862,-0.2884,-0.286,-0.285,-0.2841,-0.2839,-0.2851,-0.2841,-0.294,-0.2941,-0.2941,0,0,-0.2111,-0.2182,-0.22,-0.2288,-0.2341,-0.2377,-0.245,-0.2484,-0.2511,-0.2608,-0.2644,-0.2695,-0.2768,-0.2792,-0.2805,-0.2831,-0.2817,-0.2837,-0.2829,-0.2832,-0.2846,-0.2837,-0.2828,-0.2938,-0.2939,-0.2939,0,0,-0.2046,-0.2103,-0.2119,-0.2171,-0.2251,-0.2313,-0.2316,-0.2411,-0.2449,-0.2487,-0.2561,-0.2594,-0.2669,-0.2719,-0.2754,-0.2708,-0.2761,-0.272,-0.2667,-0.2677,-0.2669,-0.2663,-0.2646,-0.2639,-0.2718,-0.2718,-0.2718,0,-0.1978,-0.2036,-0.212,-0.2151,-0.2188,-0.2279,-0.2295,-0.2341,-0.2431,-0.2454,-0.2482,-0.258,-0.2635,-0.2672,-0.2661,-0.2686,-0.2693,-0.271,-0.2664,-0.2658,-0.2653,-0.2639,-0.2632,-0.2713,-0.2713,-0.2714,-0.2714,0,-0.1949,-0.1987,-0.1991,-0.2078,-0.2115,-0.2138,-0.2226,-0.2253,-0.2304,-0.2362,-0.24,-0.2471,-0.2534,-0.2547,-0.2597,-0.2591,-0.2604,-0.2646,-0.2694,-0.2637,-0.2625,-0.262,-0.2705,-0.2707,-0.2709,-0.271,0,0,-0.1814,-0.1949,-0.1948,-0.1989,-0.2085,-0.2116,-0.2143,-0.2207,-0.2228,-0.2287,-0.2312,-0.2375,-0.2415,-0.2455,-0.2511,-0.252,-0.2479,-0.2561,-0.2565,-0.2544,-0.2478,-0.2445,-0.2437,-0.2515,-0.2515,-0.2514,-0.2471,0,-0.1764,-0.1819,-0.1897,-0.1926,-0.1963,-0.205,-0.2074,-0.2134,-0.2189,-0.2228,-0.2288,-0.2331,-0.2381,-0.2405,-0.2418,-0.2481,-0.2467,-0.2486,-0.2539,-0.254,-0.2518,-0.2431,-0.2397,-0.2353,-0.2467,-0.2467,-0.2466,0,-0.1712,-0.1768,-0.1801,-0.1895,-0.1913,-0.1933,-0.1998,-0.2034,-0.2104,-0.2144,-0.2189,-0.225,-0.2283,-0.2327,-0.2373,-0.2384,-0.241,-0.2445,-0.2445,-0.2453,-0.2499,-0.2436,-0.2341,-0.2334,-0.246,-0.246,-0.2461,0,-0.1611,-0.1695,-0.1726,-0.1758,-0.1868,-0.188,-0.1926,-0.1998,-0.2031,-0.2088,-0.211,-0.2168,-0.22,-0.2244,-0.2319,-0.2344,-0.2357,-0.2407,-0.2391,-0.2388,-0.2389,-0.2388,-0.2297,-0.2406,-0.2406,-0.2406,-0.2406,0,-0.1546,-0.1563,-0.1682,-0.1701,-0.1723,-0.1811,-0.183,-0.1884,-0.1947,-0.1978,-0.2056,-0.2083,-0.2181,-0.2219,-0.2279,-0.2308,-0.2322,-0.2354,-0.237,-0.2347,-0.2343,-0.2366,-0.237,-0.2404,-0.2405,-0.2405,-0.2405,0,-0.1437,-0.1517,-0.1557,-0.1658,-0.1684,-0.1695,-0.1781,-0.1803,-0.1863,-0.19,-0.1914,-0.2008,-0.2057,-0.2137,-0.2209,-0.2249,-0.2267,-0.2293,-0.2244,-0.2253,-0.2232,-0.2233,-0.2152,-0.2146,-0.2258,-0.2257,-0.2256,0,-0.139,-0.1406,-0.1509,-0.1536,-0.1579,-0.1621,-0.1656,-0.1744,-0.1777,-0.1859,-0.187,-0.1925,-0.1974,-0.2048,-0.2122,-0.2178,-0.2206,-0.2174,-0.2214,-0.2192,-0.2206,-0.2204,-0.2206,-0.2164,-0.2162,-0.2161,-0.216,0,-0.13,-0.1339,-0.1387,-0.1449,-0.1489,-0.1541,-0.1597,-0.1615,-0.1715,-0.1747,-0.18,-0.1837,-0.1912,-0.1966,-0.2032,-0.2079,-0.2135,-0.2146,-0.2146,-0.2123,-0.2093,-0.2109,-0.2218,-0.2148,-0.2149,-0.215,-0.215,-0.2151,-0.1221,-0.1239,-0.1315,-0.1365,-0.1417,-0.1468,-0.1494,-0.1557,-0.1603,-0.1671,-0.172,-0.1768,-0.1839,-0.1934,-0.1977,-0.2016,-0.2042,-0.204,-0.204,-0.2038,-0.203,-0.2087,-0.2028,-0.2029,-0.2029,-0.203,-0.203,0,-0.1135,-0.1188,-0.1234,-0.1311,-0.1351,-0.1402,-0.1467,-0.1497,-0.1539,-0.1601,-0.1648,-0.1708,-0.1761,-0.1839,-0.1898,-0.1914,-0.1941,-0.1926,-0.1926,-0.1936,-0.2004,-0.1999,-0.1903,-0.1903,-0.1903,-0.1903,-0.1903,-0.1903,-0.1094,-0.1128,-0.1176,-0.1236,-0.1289,-0.1338,-0.1371,-0.1418,-0.1468,-0.1532,-0.1576,-0.1628,-0.1696,-0.1761,-0.1811,-0.1833,-0.1851,-0.1827,-0.1857,-0.1919,-0.1931,-0.1942,-0.1938,-0.1831,-0.1831,-0.1786,-0.1786,-0.1785]},{"header":{"parameterUnit":"m.s-1","parameterCategory":1,"la1":30.2991,"la2":30.254,"lo1":-89.0895,"lo2":-89.0444,"dy":0.0017,"dx":0.0017,"nx":28,"ny":28,"refTime":"2025-03-14T09:00:00:Z","depth":0,"parameterNumber":3,"parameterNumberName":"V-component_of_WINDS"},"data":[0,0,0,0,0,0,0,0,0,0,0,0,0,0,0,0,0,0,0,0,0,0,0,0,0,0,0,0,0,0,0,0,0,0,0,0,0,0,0,0,0,0,0,0,0,0,0,0,0,0,0,0,0,0,0,0,0,0,9.2697,9.27,0,9.2975,9.2978,9.2981,9.2994,9.2991,9.2988,9.2985,9.3263,9.3273,9.3283,0,0,0,0,0,0,0,0,0,0,0,0,0,9.2172,9.2181,9.2696,9.27,9.2704,9.2974,9.2978,9.2982,9.2995,9.2991,9.2987,9.2983,9.3259,9.3271,9.3284,0,0,0,0,0,0,0,0,0,0,0,0,0,9.2419,9.2184,9.2696,9.2743,9.275,9.2974,9.2978,9.2983,9.2995,9.2991,9.2986,9.2981,9.3255,9.327,9.3286,9.348,0,0,9.3334,9.334,0,0,0,0,0,0,0,0,9.2405,9.2439,9.2732,9.274,9.2748,9.2945,9.2895,9.3149,9.2997,9.2902,9.2984,9.2979,9.316,9.3184,9.3246,9.3493,9.3505,9.3335,9.3344,9.3351,9.3356,0,0,0,0,0,0,0,9.2388,9.2427,9.2806,9.2737,9.2746,9.2748,9.2778,9.2943,9.3055,9.291,9.2911,9.2945,9.3164,9.3231,9.3253,9.3509,9.3334,9.3348,9.3358,9.3364,9.3929,9.3935,0,0,0,0,0,0,9.2363,9.2412,9.2798,9.2815,9.2561,9.2762,9.2795,9.2887,9.3053,9.3074,9.2948,9.2944,9.3207,9.3234,9.3263,9.3501,9.3351,9.3366,9.3375,9.3924,9.3931,9.3937,0,0,0,0,0,0,9.2351,9.2397,9.2786,9.2614,9.2664,9.2776,9.2879,9.2895,9.2962,9.3082,9.3102,9.2997,9.3204,9.3241,9.3426,9.3511,9.3373,9.3387,9.3917,9.3926,9.3934,9.398,0,0,0,0,0,0,9.2336,9.2393,9.2469,9.2616,9.2673,9.2947,9.2884,9.2904,9.299,9.2987,9.3133,9.3153,9.3203,9.3403,9.3442,9.353,9.3399,9.391,9.3921,9.3931,9.3971,9.3989,9.4004,0,0,0,0,0,9.2317,9.2469,9.2472,9.2519,9.2771,9.2952,9.2984,9.3041,9.2996,9.3073,9.3151,9.3148,9.3496,9.3422,9.3466,9.356,9.3905,9.3918,9.393,9.3964,9.3985,9.4004,0,0,0,0,0,0,9.2325,9.2489,9.2495,9.2699,9.2812,9.2954,9.3052,9.3062,9.3188,9.318,9.3243,9.3276,9.346,9.3529,9.3443,9.3757,9.3695,9.3717,9.3706,9.3727,9.3743,9.3722,9.3412,0,0,0,0,0,9.2352,9.2487,9.2622,9.2788,9.2845,9.2939,9.302,9.3054,9.3173,9.322,9.3311,9.3425,9.356,9.3647,9.3778,9.3982,9.4014,9.4068,9.4084,9.4097,9.4115,9.4229,9.4255,9.3978,9.3978,9.3978,0,0,9.2405,9.2512,9.2593,9.2793,9.2884,9.3022,9.2979,9.3126,9.3228,9.3242,9.3424,9.3495,9.3625,9.3821,9.3912,9.3884,9.4199,9.4113,9.4123,9.4134,9.4244,9.427,9.4294,9.3987,9.3985,9.3984,0,0,9.2574,9.2668,9.2818,9.2912,9.3053,9.3115,9.3151,9.3293,9.3341,9.3525,9.3539,9.366,9.3892,9.3985,9.4062,9.4269,9.4272,9.431,9.4395,9.4505,9.4527,9.4546,9.462,9.4646,9.4328,9.4328,9.4328,0,9.2623,9.2833,9.2893,9.3042,9.3129,9.3151,9.3303,9.339,9.3565,9.3624,9.3591,9.3883,9.3973,9.4191,9.4242,9.4304,9.4347,9.4293,9.4519,9.4539,9.4558,9.463,9.4657,9.4332,9.4331,9.4331,9.4331,0,9.2886,9.3031,9.3135,9.3307,9.3406,9.3555,9.3637,9.373,9.3757,9.3821,9.4009,9.4118,9.4271,9.4326,9.4352,9.4549,9.4527,9.4506,9.4445,9.4587,9.4655,9.4683,9.4337,9.4336,9.4335,9.4334,0,0,9.3064,9.3271,9.3308,9.3387,9.3545,9.3657,9.3807,9.3961,9.4039,9.416,9.4286,9.4483,9.4465,9.4553,9.459,9.4687,9.4844,9.4654,9.4658,9.4685,9.5068,9.5083,9.5114,9.4847,9.4853,9.4857,9.5057,0,9.325,9.352,9.3581,9.3812,9.3947,9.3971,9.4102,9.4212,9.4278,9.44,9.4471,9.461,9.4576,9.463,9.4726,9.4804,9.4922,9.4791,9.4965,9.497,9.4931,9.5149,9.5165,9.5348,9.5084,9.5089,9.5092,0,9.3503,9.3633,9.3878,9.4021,9.408,9.4196,9.4342,9.446,9.4586,9.4626,9.4727,9.4754,9.491,9.4842,9.5057,9.4967,9.5042,9.5091,9.51,9.5117,9.5039,9.5172,9.5408,9.5436,9.5135,9.5131,9.5128,0,9.3608,9.3844,9.4023,9.4089,9.426,9.4341,9.4416,9.4537,9.4626,9.4753,9.4811,9.4954,9.5032,9.5141,9.5206,9.5151,9.5417,9.5354,9.5454,9.5452,9.5507,9.5503,9.5758,9.5557,9.5556,9.5556,9.5555,0,9.3809,9.3958,9.4073,9.4182,9.435,9.4418,9.4582,9.4656,9.4764,9.4887,9.4916,9.5031,9.511,9.5236,9.5287,9.5458,9.5493,9.5529,9.5541,9.5527,9.5522,9.5575,9.5564,9.5563,9.5561,9.556,9.5559,0,9.3954,9.4037,9.4233,9.438,9.4421,9.4538,9.4663,9.4769,9.4836,9.4992,9.5032,9.5137,9.5286,9.5363,9.5548,9.5582,9.5775,9.5779,9.5733,9.5738,9.5833,9.5823,9.6132,9.6176,9.5945,9.5947,9.5949,0,9.4076,9.4192,9.4353,9.4439,9.4516,9.4654,9.4746,9.4818,9.4912,9.5066,9.5154,9.5305,9.543,9.5668,9.5759,9.5901,9.5909,9.6008,9.593,9.5913,9.591,9.5902,9.5914,9.602,9.6023,9.6024,9.6026,0,9.4284,9.432,9.4453,9.4602,9.4711,9.4831,9.4948,9.5016,9.5107,9.5211,9.5366,9.5464,9.5655,9.5805,9.5955,9.603,9.6043,9.605,9.6081,9.6066,9.6035,9.6053,9.577,9.6042,9.604,9.6039,9.6038,9.6038,9.4421,9.4526,9.4657,9.4804,9.4901,9.5011,9.5119,9.5202,9.5333,9.5496,9.553,9.5694,9.5818,9.6021,9.6101,9.6229,9.6208,9.6252,9.6263,9.6273,9.6278,9.6016,9.6257,9.6256,9.6256,9.6256,9.6255,0,9.463,9.4716,9.4851,9.5017,9.5133,9.5139,9.527,9.5366,9.5511,9.5627,9.5751,9.593,9.6077,9.6181,9.633,9.6412,9.6422,9.6449,9.6443,9.646,9.6288,9.6247,9.6439,9.6439,9.6438,9.6438,9.6438,9.6438,9.4752,9.4931,9.4983,9.521,9.5294,9.5458,9.5532,9.5634,9.5727,9.5926,9.6049,9.6117,9.6229,9.6387,9.6521,9.6548,9.6601,9.6628,9.6654,9.6491,9.6472,9.6453,9.6415,9.6639,9.6639,9.6816,9.6818,9.6819]}]]